Regional Weather Roundup
Issued by NWS

Home | Current Version | Previous Version | Text Only | Print | Product List | Glossary On
Versions: 1 2 3 4 5 6 7 8 9 10 11 12 13 14 15 16 17 18 19 20 21 22 23 24 25 26 27 28 29 30 31 32 33 34 35 36 37 38 39 40 41 42 43 44 45 46 47 48 49 50
587
ASUS43 KLMK 270510
RWRKY
KENTUCKY REGIONAL WEATHER ROUNDUP
NATIONAL WEATHER SERVICE LOUISVILLE KY
100 AM EDT SAT MAY 27 2017

NOTE "FAIR" INDICATES FEW OR NO CLOUDS BELOW 12,000 FEET
WITH NO SIGNIFICANT WEATHER AND/OR OBSTRUCTIONS TO VISIBILITY.

KYZ001>023-026-027-061>063-070>075-270600-
WESTERN AND SOUTH CENTRAL KENTUCKY

CITY           SKY/WX    TMP DP  RH WIND       PRES   REMARKS
PADUCAH        CLOUDY    72  67  84 CALM      29.87R
HENDERSON      CLOUDY    71  68  90 SW7       29.87R
OWENSBORO      CLOUDY    73  67  81 W7        29.87S
HOPKINSVILLE   MOCLDY    75  61  62 S7        29.89F
BOWLING GREEN  CLOUDY    77  62  59 SW7       29.91S
GLASGOW        CLOUDY    74  59  60 SW5       29.91F
$$

KYZ024-025-028>034-038-045-046-053-270600-
NORTH CENTRAL KENTUCKY

CITY           SKY/WX    TMP DP  RH WIND       PRES   REMARKS
LOUISVILLE/SDF CLOUDY    77  62  59 S10       29.85F
LOUISVILLE/LOU CLOUDY    77  64  64 S8        29.85F
FORT KNOX      CLOUDY    73  61  65 SW6       29.85S
$$

KYZ035>037-039>044-047>052-055>060-089>105-270600-
NORTHEAST KENTUCKY

CITY           SKY/WX    TMP DP  RH WIND       PRES   REMARKS
LEXINGTON      CLOUDY    73  62  68 S10       29.89F
COVINGTON      PTCLDY    68  62  81 S12       29.82F
FRANKFORT      CLOUDY    74  61  63 S8        29.86F
$$

KYZ054-064>069-076>088-106>120-270600-
SOUTHEAST KENTUCKY

CITY           SKY/WX    TMP DP  RH WIND       PRES   REMARKS
JACKSON        CLOUDY    68  59  73 CALM      29.96S
LONDON         CLOUDY    70  59  68 S7        29.96S
SOMERSET       MOCLDY    68  59  73 S6        29.95S
MIDDLESBORO    CLOUDY    64  62  94 CALM      30.00F
MONTICELLO     CLOUDY    71  62  73 W13       29.96F
$$





USA.gov is the U.S. government's official web portal to all federal, state and local government web resources and services.